Location: Dillon
(41.1766°N, 107.0923°W)
Time: 05:26:16
(UTC+00:00)

SO-50 - Pass Details

Date: 11 July 2022
Orbit: 584 x 698 km, 64.6° (Epoch: 18 August)

Event Time Altitude Azimuth Distance (km) Brightness Sun altitude
Rises 05:48:22 0° 246° (WSW) 2,955 ? -23.7°
Reaches altitude 10° 05:50:59 10° 259° (W) 2,069 ? -23.9°
Maximum altitude 05:54:53 25° 315° (NW) 1,337 ? -24.1°
Drops below altitude 10° 05:58:55 10° 12° (NNE) 2,132 ? -24.4°
Sets 06:01:39 0° 25° (NNE) 3,065 ? -24.5°
